Flag for Iceland Weather past 2 weeks in Keflavík, Iceland

Now
54 °F

Drizzle. Mostly cloudy.


Feels Like: 49 °F
Forecast: 52 / 55 °F
Wind: 18 mph from Southeast

Location: Keflavikurflugvollur

Current Time: Jul 24, 2014 at 4:23:58 AM

Latest Report: Jul 24, 2014 at 4:00 AM


Visibility: 4 mi

Pressure: 29.95 "Hg

Humidity: 94%

Dew point: 52 °F

Location of KeflavíkLocation

Historic Weather in Keflavík — Graph

°F

Keflavík temperature yesterday

Maximum temperature yesterday: 57 °F (at 1:00 PM)
Minimum temperature yesterday: 54 °F (at 12:00 AM)
Average temperature yesterday: 55 °F

Past Weeks' High & Low Weather Summary

 TemperatureHumidityPressure
High61 °F (Jul 20, 2:00 PM)100% (Jul 9, 1:00 PM)30.04 "Hg (Jul 9, 1:00 PM)
Low45 °F (Jul 16, 4:00 AM)72% (Jul 15, 4:30 PM)29.42 "Hg (Jul 11, 4:00 PM)
Average53 °F93%29.73 "Hg
* Reported Jul 9 3:00 AM — Jul 24 3:00 AM, Keflavík, Weather by CustomWeather, © 2014

Note: Actual official high and low records may vary slightly from our data, if they occured in-between our weather recording intervals... More about our weather records

Advertising

Keflavík weather history for previous 24 hours

 ConditionsComfort  
Time TempWeatherWind HumidityBarometerVisibility
3:00 AM
Jul 24
54 °FDrizzle. Mostly cloudy.18 mph94%29.95 "Hg3 mi
2:30 AM54 °FDrizzle. Mostly cloudy.20 mph100%29.95 "Hg2 mi
2:00 AM54 °FDrizzle. Mostly cloudy.18 mph100%29.95 "Hg2 mi
1:00 AM54 °FLight rain. Overcast.22 mph100%29.95 "HgN/A
12:30 AM54 °FDrizzle. Mostly cloudy.20 mph100%29.98 "Hg5 mi
12:00 AM54 °FDrizzle. Mostly cloudy.22 mph100%29.98 "Hg4 mi
11:30 PM
Jul 23
55 °FDrizzle. Mostly cloudy.22 mph94%29.98 "HgN/A
11:00 PM55 °FBroken clouds.23 mph94%29.98 "HgN/A
10:30 PM55 °FBroken clouds.23 mph94%29.98 "HgN/A
10:00 PM55 °FBroken clouds.22 mph94%29.98 "HgN/A
9:30 PM55 °FBroken clouds.24 mph94%29.98 "HgN/A
9:00 PM55 °FBroken clouds.25 mph94%29.98 "HgN/A
8:30 PM55 °FBroken clouds.23 mph94%29.98 "HgN/A
8:00 PM55 °FBroken clouds.23 mph94%29.98 "HgN/A
7:00 PM55 °FBroken clouds.23 mph94%29.98 "HgN/A
6:30 PM57 °FPartly sunny.22 mph88%29.98 "HgN/A
6:00 PM57 °FPartly sunny.22 mph88%29.98 "HgN/A
5:30 PM57 °FPartly sunny.21 mph88%29.98 "HgN/A
5:00 PM57 °FPartly sunny.21 mph88%30.01 "HgN/A
4:30 PM57 °FPartly sunny.21 mph88%30.01 "HgN/A
4:00 PM57 °FBroken clouds.21 mph88%30.01 "HgN/A
3:30 PM57 °FBroken clouds.21 mph88%30.01 "HgN/A
3:00 PM57 °FBroken clouds.22 mph88%30.01 "HgN/A
2:30 PM57 °FBroken clouds.23 mph88%30.01 "HgN/A
2:00 PM57 °FBroken clouds.21 mph88%30.01 "HgN/A
1:30 PM57 °FBroken clouds.18 mph88%30.01 "HgN/A
1:00 PM57 °FBroken clouds.20 mph88%30.04 "HgN/A
12:00 PM55 °FBroken clouds.17 mph100%30.04 "HgN/A
11:30 AM55 °FDrizzle. Mostly cloudy.20 mph94%30.04 "HgN/A
11:00 AM55 °FLight rain. Mostly cloudy.17 mph94%30.04 "Hg6 mi
10:30 AM55 °FBroken clouds.18 mph94%30.04 "HgN/A
10:00 AM55 °FBroken clouds.16 mph94%30.04 "HgN/A
9:30 AM54 °FLight rain. Fog.16 mph100%30.01 "Hg6 mi
9:00 AM55 °FBroken clouds.16 mph94%30.01 "HgN/A
5:00 AM54 °FDrizzle. Low clouds.13 mph100%29.98 "HgN/A
4:30 AM54 °FDrizzle. Low clouds.13 mph100%29.98 "HgN/A
4:00 AM54 °FDrizzle. Low clouds.13 mph100%29.98 "HgN/A
Weather by CustomWeather, © 2014

See weather overviewHow to use our weather pages